�������l�o���
Date,Time,MP-1(��Sv/h),MP-2(��Sv/h),MP-3(��Sv/h),MP-4(��Sv/h),MP-5(��Sv/h),MP-6(��Sv/h),MP-7(��Sv/h),MP-8(��Sv/h),����,����(m/s),���J
2023/03/29,00:00,0.551,0.804,0.485,1.000,0.701,0.318,0.573,0.542,�k��,7.5,��
2023/03/29,00:10,0.550,0.802,0.487,1.004,0.702,0.317,0.573,0.545,�k��,7.0,��
2023/03/29,00:20,0.549,0.803,0.485,1.004,0.701,0.318,0.573,0.544,�k��,6.2,��
2023/03/29,00:30,0.550,0.803,0.486,1.002,0.702,0.319,0.573,0.545,�k��,6.2,��
2023/03/29,00:40,0.549,0.803,0.487,1.004,0.702,0.317,0.573,0.542,�k�k��,6.1,��
2023/03/29,00:50,0.550,0.805,0.487,1.003,0.701,0.318,0.572,0.545,�k�k��,6.1,��
2023/03/29,01:00,0.547,0.805,0.486,1.005,0.701,0.320,0.573,0.543,�k�k��,6.8,��
2023/03/29,01:10,0.550,0.804,0.486,1.003,0.700,0.317,0.573,0.543,�k�k��,5.8,��
2023/03/29,01:20,0.550,0.804,0.486,1.004,0.701,0.319,0.571,0.544,�k�k��,6.4,��
2023/03/29,01:30,0.549,0.803,0.486,1.001,0.701,0.318,0.573,0.544,�k�k��,6.5,��
2023/03/29,01:40,0.549,0.805,0.485,0.999,0.702,0.318,0.572,0.544,�k�k��,6.7,��
2023/03/29,01:50,0.549,0.805,0.487,1.003,0.703,0.318,0.573,0.543,�k�k��,6.5,��
2023/03/29,02:00,0.549,0.803,0.485,1.003,0.703,0.317,0.572,0.544,�k��,6.0,��
2023/03/29,02:10,0.549,0.804,0.487,1.003,0.702,0.317,0.573,0.543,�k��,6.3,��
2023/03/29,02:20,0.550,0.803,0.488,1.005,0.702,0.318,0.572,0.542,�k�k��,5.3,��
2023/03/29,02:30,0.550,0.803,0.486,1.005,0.700,0.319,0.571,0.545,�k�k��,6.2,��
2023/03/29,02:40,0.548,0.804,0.487,1.004,0.703,0.317,0.571,0.546,�k�k��,5.4,��
2023/03/29,02:50,0.548,0.802,0.487,1.004,0.703,0.319,0.572,0.545,�k�k��,4.9,��
2023/03/29,03:00,0.551,0.803,0.488,1.003,0.703,0.319,0.574,0.546,�k�k��,5.6,��
2023/03/29,03:10,0.549,0.803,0.485,1.002,0.701,0.319,0.572,0.543,�k�k��,6.5,��
2023/03/29,03:20,0.551,0.804,0.486,1.004,0.702,0.318,0.572,0.544,�k�k��,8.5,��
2023/03/29,03:30,0.548,0.803,0.488,1.004,0.701,0.319,0.573,0.542,�k�k��,8.3,��
2023/03/29,03:40,0.550,0.803,0.486,1.003,0.702,0.317,0.573,0.544,�k�k��,8.9,��
2023/03/29,03:50,0.549,0.803,0.486,1.004,0.702,0.317,0.572,0.544,�k�k��,7.5,��
2023/03/29,04:00,0.550,0.802,0.487,1.002,0.701,0.318,0.571,0.542,�k�k��,7.4,��
2023/03/29,04:10,0.549,0.803,0.486,1.003,0.701,0.318,0.571,0.544,�k�k��,7.8,��
2023/03/29,04:20,0.549,0.805,0.486,1.003,0.701,0.317,0.570,0.543,�k�k��,7.4,��
2023/03/29,04:30,0.548,0.802,0.487,1.003,0.702,0.319,0.571,0.544,�k��,8.3,��
2023/03/29,04:40,0.547,0.804,0.487,1.005,0.701,0.319,0.572,0.543,�k��,7.5,��
2023/03/29,04:50,0.549,0.805,0.487,1.003,0.702,0.318,0.571,0.544,�k��,7.8,��
2023/03/29,05:00,0.552,0.804,0.486,1.001,0.704,0.319,0.572,0.544,�k��,7.4,��
2023/03/29,05:10,0.549,0.804,0.486,1.004,0.702,0.318,0.571,0.544,�k�k��,7.6,��
2023/03/29,05:20,0.551,0.804,0.487,1.005,0.701,0.318,0.571,0.543,�k�k��,8.1,��
2023/03/29,05:30,0.549,0.805,0.487,1.000,0.703,0.318,0.572,0.543,�k�k��,8.3,��
2023/03/29,05:40,0.549,0.802,0.487,1.006,0.701,0.318,0.573,0.544,�k�k��,7.9,��
2023/03/29,05:50,0.549,0.804,0.484,1.004,0.701,0.318,0.572,0.544,�k�k��,8.5,��
2023/03/29,06:00,0.549,0.805,0.487,1.003,0.701,0.318,0.573,0.543,�k�k��,8.8,��
2023/03/29,06:10,0.548,0.805,0.487,1.006,0.703,0.320,0.573,0.544,�k��,8.5,��
2023/03/29,06:20,0.550,0.803,0.486,1.002,0.702,0.319,0.573,0.544,�k�k��,7.9,��
2023/03/29,06:30,0.549,0.804,0.487,1.005,0.702,0.318,0.572,0.545,�k�k��,6.9,��
2023/03/29,06:40,0.552,0.804,0.486,1.006,0.703,0.319,0.574,0.543,�k�k��,7.4,��
2023/03/29,06:50,0.551,0.803,0.486,1.004,0.701,0.317,0.572,0.544,�k�k��,7.7,��
2023/03/29,07:00,0.552,0.805,0.488,1.003,0.701,0.318,0.573,0.545,�k�k��,7.7,��
2023/03/29,07:10,0.551,0.804,0.487,1.004,0.702,0.319,0.573,0.544,�k��,6.0,��
2023/03/29,07:20,0.551,0.805,0.487,1.004,0.702,0.319,0.574,0.543,�k��,5.7,��
2023/03/29,07:30,0.551,0.804,0.486,1.004,0.703,0.317,0.574,0.546,�k�k��,5.2,��
2023/03/29,07:40,0.552,0.806,0.487,1.004,0.703,0.317,0.573,0.545,�k�k��,5.3,��
2023/03/29,07:50,0.552,0.805,0.488,1.005,0.702,0.319,0.573,0.543,�k�k��,5.7,��
2023/03/29,08:00,0.550,0.807,0.489,1.006,0.702,0.318,0.572,0.544,�k�k��,5.2,��
2023/03/29,08:10,0.551,0.805,0.487,1.006,0.704,0.319,0.571,0.544,�k�k��,4.9,��
2023/03/29,08:20,0.552,0.806,0.488,1.005,0.703,0.317,0.571,0.543,�k�k��,5.8,��
2023/03/29,08:30,0.551,0.805,0.488,1.002,0.702,0.319,0.572,0.544,�k��,4.4,��
2023/03/29,08:40,0.549,0.805,0.488,1.005,0.702,0.318,0.571,0.543,�k�k��,5.0,��
2023/03/29,08:50,0.549,0.805,0.487,1.005,0.703,0.318,0.571,0.544,�k�k��,5.4,��
2023/03/29,09:00,0.548,0.806,0.488,1.002,0.704,0.318,0.572,0.542,�k�k��,5.4,��
2023/03/29,09:10,0.547,0.807,0.489,1.004,0.704,0.318,0.572,0.543,�k�k��,5.1,��
2023/03/29,09:20,0.551,0.806,0.488,1.004,0.702,0.317,0.571,0.543,�k�k��,5.7,��
2023/03/29,09:30,0.552,0.802,0.489,1.005,0.704,0.319,0.571,0.544,�k,4.8,��
2023/03/29,09:40,0.555,0.804,0.488,1.005,0.704,0.320,0.571,0.542,�k,4.8,��
2023/03/29,09:50,0.553,0.803,0.488,1.002,0.704,0.319,0.570,0.543,�k,5.3,��
2023/03/29,10:00,0.551,0.803,0.487,1.006,0.703,0.318,0.571,0.544,�k,5.4,��
2023/03/29,10:10,0.551,0.804,0.486,1.008,0.704,0.318,0.572,0.544,�k�k��,5.8,��
2023/03/29,10:20,0.550,0.805,0.488,1.006,0.703,0.316,0.572,0.543,�k,5.8,��
2023/03/29,10:30,0.549,0.803,0.488,1.006,0.700,0.318,0.572,0.542,�k,4.7,��
2023/03/29,10:40,0.551,0.804,0.489,1.006,0.701,0.317,0.572,0.542,�k�k��,4.8,��
2023/03/29,10:50,0.551,0.804,0.488,1.004,0.702,0.317,0.571,0.543,�k�k��,5.2,��
2023/03/29,11:00,0.549,0.803,0.488,1.007,0.701,0.317,0.572,0.542,�k,5.6,��
2023/03/29,11:10,0.550,0.803,0.488,1.006,0.700,0.317,0.570,0.542,�k,5.1,��
2023/03/29,11:20,0.550,0.805,0.489,1.007,0.702,0.317,0.571,0.542,�k�k��,4.6,��
2023/03/29,11:30,0.550,0.806,0.487,1.006,0.702,0.317,0.571,0.543,�k�k��,5.1,��
2023/03/29,11:40,0.551,0.806,0.487,1.005,0.703,0.317,0.571,0.542,�k�k��,5.4,��
2023/03/29,11:50,0.553,0.806,0.487,1.006,0.702,0.318,0.571,0.542,�k,5.9,��
2023/03/29,12:00,0.550,0.805,0.488,1.007,0.704,0.317,0.572,0.543,�k�k��,7.0,��
2023/03/29,12:10,0.552,0.806,0.488,1.007,0.703,0.318,0.573,0.543,�k�k��,6.0,��
2023/03/29,12:20,0.552,0.809,0.487,1.006,0.703,0.318,0.572,0.542,�k�k��,6.7,��
2023/03/29,12:30,0.552,0.806,0.487,1.007,0.705,0.319,0.573,0.541,�k,6.6,��
2023/03/29,12:40,0.553,0.807,0.488,1.007,0.704,0.318,0.572,0.543,�k,6.4,��
2023/03/29,12:50,0.552,0.807,0.486,1.007,0.707,0.320,0.572,0.543,�k�k��,6.8,��
2023/03/29,13:00,0.553,0.806,0.487,1.007,0.706,0.318,0.573,0.543,�k,7.4,��
2023/03/29,13:10,0.551,0.807,0.488,1.008,0.704,0.318,0.573,0.542,�k�k��,6.7,��
2023/03/29,13:20,0.554,0.804,0.487,1.008,0.703,0.319,0.571,0.543,�k�k��,6.5,��
2023/03/29,13:30,0.554,0.808,0.488,1.007,0.705,0.318,0.572,0.542,�k�k��,6.3,��
2023/03/29,13:40,0.552,0.808,0.487,1.007,0.704,0.319,0.574,0.544,�k�k��,6.7,��
2023/03/29,13:50,0.551,0.807,0.487,1.008,0.705,0.319,0.573,0.544,�k,7.3,��
2023/03/29,14:00,0.553,0.806,0.487,1.008,0.706,0.319,0.571,0.543,�k�k��,5.5,��
2023/03/29,14:10,0.552,0.805,0.488,1.007,0.705,0.318,0.572,0.542,�k�k��,5.8,��
2023/03/29,14:20,0.551,0.805,0.488,1.006,0.704,0.318,0.570,0.543,�k,6.2,��
2023/03/29,14:30,0.552,0.807,0.488,1.008,0.705,0.319,0.574,0.543,�k�k��,5.9,��
2023/03/29,14:40,0.554,0.806,0.488,1.007,0.705,0.321,0.570,0.544,�k�k��,5.3,��
2023/03/29,14:50,0.553,0.808,0.489,1.009,0.703,0.319,0.571,0.543,�k�k��,5.1,��
2023/03/29,15:00,0.554,0.810,0.488,1.008,0.704,0.319,0.572,0.545,�k�k��,4.6,��
2023/03/29,15:10,0.553,0.807,0.491,1.004,0.704,0.319,0.571,0.544,�k�k��,4.3,��
2023/03/29,15:20,0.553,0.809,0.490,1.007,0.705,0.321,0.570,0.543,�k,4.4,��
2023/03/29,15:30,0.555,0.809,0.489,1.009,0.705,0.320,0.570,0.546,�k�k��,4.3,��
2023/03/29,15:40,0.552,0.807,0.489,1.008,0.705,0.320,0.572,0.544,�k�k��,4.1,��
2023/03/29,15:50,0.553,0.809,0.490,1.009,0.704,0.320,0.571,0.546,�k�k��,3.9,��
2023/03/29,16:00,0.552,0.811,0.490,1.009,0.705,0.320,0.573,0.544,�k�k��,3.6,��
2023/03/29,16:10,0.555,0.810,0.490,1.008,0.707,0.320,0.571,0.545,�k,2.9,��
2023/03/29,16:20,0.556,0.810,0.489,1.008,0.705,0.321,0.571,0.546,�k�k��,2.9,��
2023/03/29,16:30,0.554,0.813,0.490,1.008,0.706,0.320,0.572,0.546,�k,2.5,��
2023/03/29,16:40,0.556,0.812,0.490,1.008,0.707,0.320,0.571,0.545,�k,2.8,��
2023/03/29,16:50,0.554,0.810,0.490,1.009,0.706,0.319,0.572,0.547,�k�k��,2.6,��
2023/03/29,17:00,0.556,0.812,0.489,1.008,0.705,0.319,0.572,0.546,�k,2.9,��
2023/03/29,17:10,0.555,0.811,0.491,1.009,0.707,0.321,0.573,0.546,�k,2.3,��
2023/03/29,17:20,0.556,0.810,0.489,1.008,0.707,0.321,0.573,0.546,�k,2.5,��
2023/03/29,17:30,0.554,0.810,0.489,1.008,0.706,0.320,0.573,0.546,�k�k��,2.2,��
2023/03/29,17:40,0.554,0.811,0.489,1.009,0.707,0.318,0.573,0.547,�k�k��,2.3,��
2023/03/29,17:50,0.556,0.809,0.490,1.008,0.708,0.320,0.572,0.546,�k�k��,2.6,��
2023/03/29,18:00,0.554,0.809,0.489,1.009,0.707,0.319,0.572,0.544,�k��,2.5,��
2023/03/29,18:10,0.553,0.808,0.491,1.008,0.706,0.320,0.574,0.545,�k��,2.6,��
2023/03/29,18:20,0.555,0.810,0.491,1.007,0.708,0.320,0.574,0.545,�k��,3.5,��
2023/03/29,18:30,0.554,0.813,0.489,1.010,0.707,0.320,0.573,0.545,�k��,3.3,��
2023/03/29,18:40,0.556,0.809,0.488,1.008,0.707,0.320,0.574,0.544,�k��,3.6,��
2023/03/29,18:50,0.556,0.809,0.489,1.010,0.708,0.321,0.570,0.546,�k��,3.3,��
2023/03/29,19:00,0.555,0.809,0.489,1.008,0.707,0.320,0.575,0.546,�k��,3.4,��
2023/03/29,19:10,0.554,0.812,0.490,1.008,0.708,0.319,0.573,0.545,�k��,3.1,��
2023/03/29,19:20,0.553,0.810,0.490,1.008,0.708,0.320,0.574,0.546,�k��,3.3,��
2023/03/29,19:30,0.554,0.812,0.490,1.008,0.709,0.320,0.573,0.546,�k��,3.3,��
2023/03/29,19:40,0.555,0.812,0.489,1.009,0.707,0.321,0.572,0.546,�k��,4.3,��
2023/03/29,19:50,0.556,0.809,0.489,1.008,0.710,0.320,0.573,0.544,�k��,4.4,��
2023/03/29,20:00,0.554,0.809,0.489,1.008,0.706,0.321,0.574,0.545,�k��,3.8,��
2023/03/29,20:10,0.553,0.809,0.490,1.008,0.708,0.319,0.573,0.545,�k��,3.3,��
2023/03/29,20:20,0.554,0.811,0.489,1.007,0.706,0.319,0.574,0.545,�k��,3.7,��
2023/03/29,20:30,0.554,0.811,0.490,1.008,0.708,0.319,0.573,0.544,�k��,3.6,��
2023/03/29,20:40,0.554,0.810,0.490,1.008,0.709,0.320,0.574,0.544,�k��,3.6,��
2023/03/29,20:50,0.553,0.812,0.490,1.008,0.707,0.320,0.574,0.546,�k��,3.5,��
2023/03/29,21:00,0.555,0.809,0.490,1.008,0.709,0.320,0.575,0.545,�k��,3.6,��
2023/03/29,21:10,0.555,0.809,0.490,1.007,0.707,0.320,0.574,0.545,�k��,4.2,��
2023/03/29,21:20,0.552,0.810,0.488,1.008,0.706,0.321,0.574,0.546,�k��,3.0,��
2023/03/29,21:30,0.554,0.811,0.490,1.009,0.707,0.320,0.574,0.544,�k��,3.7,��
2023/03/29,21:40,0.554,0.810,0.490,1.007,0.706,0.319,0.574,0.547,�k��,4.2,��
2023/03/29,21:50,0.553,0.811,0.491,1.008,0.708,0.319,0.574,0.546,�k��,3.5,��
2023/03/29,22:00,0.554,0.810,0.487,1.009,0.708,0.320,0.573,0.545,���k��,4.1,��
2023/03/29,22:10,0.554,0.810,0.488,1.007,0.707,0.319,0.572,0.546,�k��,3.7,��
2023/03/29,22:20,0.553,0.809,0.489,1.010,0.708,0.319,0.575,0.544,���k��,2.6,��
2023/03/29,22:30,0.554,0.810,0.488,1.008,0.710,0.320,0.574,0.543,�k��,3.5,��
2023/03/29,22:40,0.554,0.808,0.489,1.008,0.708,0.320,0.575,0.546,�k��,3.6,��
2023/03/29,22:50,0.554,0.808,0.487,1.010,0.706,0.319,0.575,0.546,�k�k��,3.0,��
2023/03/29,23:00,0.553,0.807,0.490,1.008,0.708,0.320,0.574,0.545,�k�k��,3.1,��
2023/03/29,23:10,0.554,0.809,0.488,1.009,0.707,0.320,0.573,0.546,�k��,4.4,��
2023/03/29,23:20,0.555,0.810,0.489,1.010,0.707,0.320,0.574,0.544,�k��,5.0,��
2023/03/29,23:30,0.555,0.809,0.490,1.008,0.706,0.320,0.575,0.545,�k��,4.6,��
2023/03/29,23:40,0.554,0.810,0.488,1.011,0.707,0.320,0.574,0.544,�k��,3.6,��
2023/03/29,23:50,0.553,0.809,0.490,1.008,0.706,0.321,0.573,0.544,�k��,3.5,��
